QPF
0.03 0.04 0.04 0.03 0.02 0.01 0.01 0.01 0.01 0.06 0.17 0.28 0.30 0.30 0.24 0.16 0.10 0.07 0.07 0.06 0.04 0.03 0.03 0.03 0.02 0.01 0.01 0.01 0.01 0.00 0.00 0.00 0.00 0.00 0.00 0.00 0.00 0.00 0.01 0.01 0.01 0.00 0.00 0.00
0.01 0.01 0.03 0.04 0.05 0.04 0.03 0.02 0.04 0.09 0.21 0.32 0.46 0.47 0.35 0.24 0.18 0.15 0.13 0.10 0.08 0.06 0.06 0.05 0.04 0.04 0.03 0.03 0.02 0.02 0.02 0.01 0.01 0.01 0.00 0.00 0.00 0.01 0.01 0.00 0.00 0.00 0.00 0.00
0.01 0.01 0.02 0.04 0.04 0.03 0.03 0.04 0.06 0.11 0.19 0.23 0.29 0.31 0.30 0.28 0.26 0.23 0.20 0.17 0.15 0.14 0.13 0.11 0.09 0.08 0.07 0.07 0.06 0.04 0.03 0.02 0.02 0.01 0.01 0.01 0.00 0.01 0.01 0.01 0.01 0.01 0.00 0.00
0.01 0.04 0.06 0.07 0.03 0.02 0.05 0.07 0.07 0.10 0.12 0.15 0.18 0.20 0.20 0.21 0.25 0.26 0.25 0.24 0.24 0.23 0.21 0.17 0.13 0.10 0.08 0.07 0.05 0.03 0.02 0.01 0.01 0.01 0.01 0.01 0.01 0.01 0.01 0.01 0.01 0.01 0.01 0.01
0.02 0.06 0.09 0.11 0.04 0.01 0.05 0.11 0.08 0.09 0.08 0.08 0.09 0.08 0.08 0.11 0.14 0.17 0.20 0.21 0.20 0.19 0.16 0.13 0.10 0.07 0.06 0.03 0.02 0.01 0.02 0.01 0.01 0.01 0.01 0.01 0.01 0.01 0.01 0.01 0.01 0.01 0.01 0.01
0.04 0.09 0.13 0.16 0.04 0.01 0.05 0.15 0.14 0.14 0.13 0.13 0.15 0.13 0.08 0.07 0.09 0.12 0.13 0.12 0.12 0.12 0.11 0.08 0.06 0.05 0.03 0.02 0.02 0.01 0.01 0.01 0.01 0.01 0.01 0.01 0.01 0.01 0.01 0.01 0.01 0.01 0.01 0.01
0.06 0.10 0.14 0.05 0.00 0.02 0.10 0.17 0.17 0.12 0.11 0.15 0.16 0.13 0.08 0.06 0.07 0.07 0.07 0.07 0.06 0.06 0.05 0.04 0.03 0.03 0.03 0.03 0.02 0.02 0.02 0.03 0.03 0.02 0.01 0.01 0.02 0.02 0.02 0.02 0.03 0.02 0.02 0.03
0.08 0.10 0.12 0.03 0.02 0.07 0.11 0.14 0.11 0.09 0.07 0.05 0.03 0.02 0.02 0.02 0.02 0.03 0.04 0.04 0.05 0.04 0.04 0.03 0.03 0.04 0.04 0.03 0.02 0.02 0.03 0.04 0.04 0.03 0.02 0.01 0.02 0.03 0.03 0.03 0.04 0.04 0.04 0.04
0.07 0.10 0.09 0.03 0.04 0.07 0.08 0.08 0.07 0.07 0.05 0.02 0.01 0.01 0.01 0.01 0.01 0.01 0.02 0.02 0.03 0.03 0.02 0.02 0.02 0.03 0.03 0.03 0.02 0.02 0.04 0.04 0.03 0.02 0.02 0.02 0.01 0.03 0.03 0.04 0.04 0.03 0.03 0.04
0.05 0.08 0.06 0.05 0.05 0.04 0.03 0.04 0.05 0.05 0.05 0.04 0.02 0.01 0.01 0.01 0.01 0.02 0.02 0.02 0.02 0.02 0.02 0.03 0.03 0.03 0.03 0.03 0.03 0.05 0.05 0.04 0.03 0.02 0.02 0.01 0.01 0.01 0.01 0.02 0.02 0.01 0.02 0.03
0.04 0.06 0.05 0.07 0.06 0.04 0.03 0.02 0.04 0.04 0.04 0.03 0.02 0.01 0.01 0.01 0.02 0.02 0.02 0.02 0.02 0.03 0.03 0.02 0.02 0.02 0.02 0.03 0.04 0.05 0.05 0.03 0.02 0.02 0.02 0.02 0.01 0.01 0.00 0.00 0.00 0.00 0.01 0.01
0.05 0.06 0.06 0.09 0.05 0.03 0.03 0.04 0.04 0.05 0.03 0.02 0.02 0.01 0.01 0.02 0.02 0.02 0.03 0.03 0.03 0.02 0.02 0.01 0.01 0.01 0.00 0.01 0.02 0.03 0.03 0.02 0.01 0.01 0.01 0.01 0.01 0.02 0.01 0.00 0.00 0.00 0.00 0.00
0.01 0.01 0.01 0.03 0.02 0.02 0.03 0.03 0.03 0.04 0.03 0.02 0.02 0.02 0.02 0.02 0.02 0.03 0.02 0.02 0.02 0.02 0.01 0.01 0.01 0.00 0.00 0.00 0.00 0.00 0.01 0.01 0.00 0.01 0.01 0.01 0.01 0.03 0.04 0.02 0.00 0.00 0.00 0.00
0.00 0.01 0.04 0.05 0.03 0.02 0.02 0.02 0.02 0.02 0.03 0.02 0.01 0.02 0.02 0.02 0.02 0.02 0.02 0.02 0.01 0.01 0.01 0.00 0.00 0.00 0.00 0.00 0.00 0.00 0.00 0.01 0.00 0.01 0.00 0.00 0.01 0.02 0.03 0.06 0.05 0.03 0.01 0.00
0.00 0.01 0.03 0.02 0.02 0.01 0.02 0.02 0.02 0.02 0.02 0.02 0.02 0.02 0.02 0.02 0.02 0.01 0.00 0.00 0.00 0.00 0.00 0.00 0.00 0.00 0.00 0.00 0.00 0.00 0.00 0.01 0.01 0.00 0.00 0.00 0.01 0.01 0.01 0.03 0.04 0.04 0.03 0.01
0.00 0.00 0.00 0.01 0.02 0.02 0.02 0.02 0.02 0.02 0.02 0.02 0.02 0.02 0.02 0.01 0.00 0.00 0.00 0.00 0.00 0.00 0.00 0.00 0.00 0.00 0.00 0.00 0.00 0.00 0.01 0.01 0.00 0.00 0.01 0.00 0.00 0.01 0.01 0.02 0.02 0.02 0.01 0.01
0.01 0.01 0.01 0.02 0.02 0.02 0.01 0.01 0.01 0.02 0.02 0.02 0.01 0.01 0.00 0.00 0.00 0.01 0.01 0.00 0.00 0.00 0.00 0.00 0.00 0.00 0.00 0.00 0.00 0.00 0.01 0.01 0.01 0.00 0.00 0.00 0.00 0.01 0.01 0.02 0.02 0.02 0.01 0.01
0.00 0.01 0.01 0.01 0.01 0.01 0.01 0.01 0.01 0.01 0.01 0.01 0.00 0.00 0.00 0.01 0.01 0.00 0.00 0.00 0.00 0.00 0.00 0.00 0.00 0.00 0.00 0.00 0.00 0.00 0.00 0.00 0.00 0.00 0.00 0.00 0.00 0.00 0.00 0.01 0.01 0.01 0.01 0.01
0.00 0.00 0.00 0.01 0.00 0.00 0.00 0.01 0.01 0.00 0.00 0.00 0.00 0.00 0.00 0.00 0.00 0.00 0.00 0.00 0.00 0.00 0.00 0.00 0.00 0.00 0.00 0.00 0.00 0.00 0.00 0.00 0.00 0.00 0.00 0.00 0.00 0.00 0.00 0.00 0.01 0.01 0.01 0.01
0.00 0.00 0.00 0.00 0.00 0.00 0.00 0.00 0.00 0.00 0.00 0.00 0.00 0.00 0.00 0.00 0.00 0.00 0.00 0.00 0.00 0.00 0.00 0.00 0.00 0.00 0.00 0.00 0.00 0.00 0.00 0.00 0.00 0.00 0.00 0.00 0.00 0.00 0.00 0.00 0.00 0.01 0.01 0.01
0.00 0.00 0.00 0.00 0.00 0.00 0.00 0.00 0.00 0.00 0.00 0.00 0.00 0.00 0.00 0.00 0.00 0.00 0.00 0.00 0.00 0.00 0.00 0.00 0.00 0.00 0.00 0.00 0.00 0.00 0.00 0.00 0.00 0.00 0.00 0.00 0.00 0.00 0.00 0.00 0.00 0.00 0.01 0.01
0.00 0.00 0.00 0.00 0.00 0.00 0.00 0.00 0.00 0.00 0.00 0.00 0.00 0.00 0.00 0.00 0.00 0.00 0.00 0.00 0.00 0.00 0.00 0.00 0.00 0.00 0.00 0.00 0.00 0.00 0.00 0.00 0.00 0.00 0.00 0.00 0.00 0.00 0.00 0.00 0.00 0.00 0.00 0.00
0.00 0.00 0.00 0.00 0.00 0.00 0.00 0.00 0.00 0.00 0.00 0.00 0.00 0.00 0.00 0.00 0.00 0.00 0.00 0.00 0.00 0.00 0.00 0.00 0.00 0.00 0.00 0.00 0.00 0.00 0.00 0.00 0.00 0.00 0.00 0.00 0.00 0.00 0.00 0.00 0.00 0.00 0.00 0.00
0.00 0.00 0.00 0.00 0.00 0.00 0.00 0.00 0.00 0.00 0.00 0.00 0.00 0.00 0.00 0.00 0.00 0.00 0.00 0.00 0.00 0.00 0.00 0.00 0.00 0.00 0.00 0.00 0.00 0.00 0.00 0.00 0.00 0.00 0.00 0.00 0.00 0.00 0.00 0.00 0.00 0.00 0.00 0.00
0.00 0.00 0.00 0.00 0.00 0.00 0.00 0.00 0.00 0.00 0.00 0.00 0.00 0.00 0.00 0.00 0.00 0.00 0.00 0.00 0.00 0.00 0.00 0.00 0.00 0.00 0.00 0.00 0.00 0.00 0.00 0.00 0.00 0.00 0.00 0.00 0.00 0.00 0.00 0.00 0.00 0.00 0.00 0.00
0.02 0.01 0.01 0.00 0.00 0.00 0.00 0.00 0.00 0.00 0.00 0.00 0.00 0.00 0.00 0.00 0.00 0.00 0.00 0.00 0.00 0.00 0.00 0.00 0.00 0.00 0.00 0.00 0.00 0.00 0.00 0.00 0.00 0.00 0.00 0.00 0.00 0.00 0.00 0.00 0.00 0.00 0.00 0.00
0.02 0.02 0.01 0.00 0.00 0.00 0.00 0.00 0.00 0.00 0.00 0.00 0.00 0.00 0.00 0.00 0.00 0.00 0.00 0.00 0.00 0.00 0.00 0.00 0.00 0.00 0.00 0.00 0.00 0.00 0.00 0.00 0.00 0.00 0.00 0.00 0.00 0.00 0.00 0.00 0.00 0.00 0.00 0.00
MSLP
1009.27 1009.16 1009.06 1008.99 1008.99 1009.07 1009.25 1009.53 1009.91 1010.38 1010.93 1011.55 1012.23 1012.94 1013.67 1014.39 1015.07 1015.69 1016.22 1016.66 1017.01 1017.29 1017.52 1017.73 1017.97 1018.26 1018.61 1019.03 1019.48 1019.95 1020.38 1020.76 1021.04 1021.24 1021.34 1021.38 1021.41 1021.45 1021.55 1021.72 1021.97 1022.30 1022.67 1023.04
1009.95 1009.90 1009.83 1009.77 1009.78 1009.87 1010.07 1010.39 1010.83 1011.37 1012.00 1012.69 1013.42 1014.16 1014.88 1015.56 1016.17 1016.70 1017.15 1017.52 1017.81 1018.07 1018.32 1018.57 1018.87 1019.21 1019.61 1020.04 1020.49 1020.92 1021.30 1021.60 1021.81 1021.93 1021.98 1021.98 1021.99 1022.03 1022.14 1022.33 1022.61 1022.96 1023.33 1023.71
1010.62 1010.64 1010.62 1010.60 1010.63 1010.75 1010.97 1011.33 1011.80 1012.40 1013.08 1013.82 1014.59 1015.34 1016.05 1016.69 1017.25 1017.72 1018.10 1018.41 1018.67 1018.92 1019.17 1019.45 1019.78 1020.15 1020.57 1020.99 1021.41 1021.79 1022.10 1022.33 1022.46 1022.51 1022.51 1022.48 1022.47 1022.51 1022.63 1022.83 1023.11 1023.46 1023.83 1024.18
1011.25 1011.34 1011.38 1011.40 1011.46 1011.60 1011.84 1012.21 1012.71 1013.33 1014.04 1014.80 1015.59 1016.35 1017.05 1017.66 1018.19 1018.61 1018.96 1019.24 1019.48 1019.72 1019.98 1020.27 1020.61 1020.98 1021.38 1021.78 1022.16 1022.47 1022.71 1022.86 1022.92 1022.92 1022.87 1022.81 1022.79 1022.82 1022.93 1023.13 1023.41 1023.73 1024.07 1024.38
1011.83 1011.97 1012.05 1012.11 1012.18 1012.33 1012.57 1012.94 1013.44 1014.06 1014.78 1015.55 1016.34 1017.10 1017.80 1018.41 1018.91 1019.32 1019.65 1019.92 1020.15 1020.39 1020.65 1020.94 1021.27 1021.63 1022.00 1022.36 1022.67 1022.92 1023.09 1023.17 1023.18 1023.13 1023.05 1022.97 1022.93 1022.96 1023.05 1023.23 1023.47 1023.76 1024.05 1024.31
1012.33 1012.50 1012.60 1012.67 1012.75 1012.89 1013.12 1013.48 1013.96 1014.57 1015.28 1016.05 1016.84 1017.60 1018.30 1018.91 1019.42 1019.83 1020.15 1020.42 1020.65 1020.89 1021.14 1021.42 1021.73 1022.06 1022.39 1022.70 1022.95 1023.15 1023.26 1023.29 1023.26 1023.18 1023.08 1022.99 1022.94 1022.95 1023.03 1023.18 1023.38 1023.62 1023.86 1024.07
1012.76 1012.92 1013.02 1013.09 1013.16 1013.29 1013.50 1013.84 1014.31 1014.90 1015.60 1016.36 1017.15 1017.91 1018.61 1019.23 1019.74 1020.16 1020.49 1020.77 1021.00 1021.23 1021.47 1021.73 1022.01 1022.30 1022.58 1022.84 1023.04 1023.18 1023.25 1023.25 1023.20 1023.11 1023.00 1022.91 1022.86 1022.87 1022.93 1023.06 1023.23 1023.42 1023.62 1023.79
1013.09 1013.25 1013.34 1013.40 1013.46 1013.57 1013.78 1014.10 1014.56 1015.14 1015.82 1016.57 1017.36 1018.12 1018.82 1019.45 1019.97 1020.39 1020.73 1021.00 1021.23 1021.45 1021.67 1021.89 1022.14 1022.38 1022.62 1022.83 1022.99 1023.09 1023.14 1023.12 1023.06 1022.97 1022.88 1022.81 1022.77 1022.79 1022.85 1022.97 1023.12 1023.29 1023.46 1023.60
1013.35 1013.49 1013.58 1013.64 1013.70 1013.82 1014.03 1014.35 1014.80 1015.38 1016.06 1016.80 1017.57 1018.33 1019.03 1019.65 1020.16 1020.59 1020.92 1021.18 1021.40 1021.60 1021.79 1021.98 1022.18 1022.38 1022.57 1022.73 1022.86 1022.93 1022.96 1022.94 1022.89 1022.83 1022.77 1022.72 1022.72 1022.76 1022.84 1022.97 1023.12 1023.29 1023.46 1023.60
1013.54 1013.69 1013.79 1013.87 1013.96 1014.11 1014.34 1014.68 1015.15 1015.72 1016.39 1017.12 1017.88 1018.61 1019.29 1019.89 1020.39 1020.79 1021.11 1021.35 1021.55 1021.71 1021.87 1022.02 1022.17 1022.33 1022.47 1022.60 1022.69 1022.75 1022.77 1022.76 1022.73 1022.69 1022.67 1022.67 1022.71 1022.80 1022.92 1023.08 1023.26 1023.45 1023.63 1023.78
1013.69 1013.86 1014.01 1014.14 1014.29 1014.49 1014.77 1015.15 1015.63 1016.21 1016.87 1017.57 1018.30 1018.99 1019.63 1020.19 1020.66 1021.02 1021.31 1021.52 1021.68 1021.81 1021.93 1022.04 1022.15 1022.26 1022.37 1022.45 1022.52 1022.56 1022.57 1022.57 1022.56 1022.56 1022.58 1022.63 1022.73 1022.87 1023.04 1023.25 1023.48 1023.71 1023.93 1024.10
1013.82 1014.05 1014.27 1014.48 1014.71 1014.98 1015.32 1015.74 1016.24 1016.83 1017.47 1018.14 1018.81 1019.45 1020.03 1020.53 1020.94 1021.26 1021.50 1021.67 1021.80 1021.89 1021.97 1022.05 1022.12 1022.20 1022.26 1022.32 1022.35 1022.37 1022.38 1022.38 1022.38 1022.41 1022.46 1022.57 1022.72 1022.91 1023.15 1023.42 1023.71 1023.99 1024.24 1024.45
1013.94 1014.26 1014.57 1014.87 1015.20 1015.56 1015.96 1016.42 1016.94 1017.52 1018.12 1018.75 1019.35 1019.92 1020.43 1020.86 1021.20 1021.47 1021.66 1021.79 1021.88 1021.95 1022.00 1022.05 1022.09 1022.13 1022.16 1022.18 1022.19 1022.18 1022.17 1022.16 1022.17 1022.21 1022.30 1022.44 1022.63 1022.88 1023.18 1023.51 1023.85 1024.18 1024.47 1024.71
1014.08 1014.49 1014.90 1015.31 1015.73 1016.16 1016.63 1017.12 1017.65 1018.20 1018.76 1019.32 1019.85 1020.34 1020.77 1021.12 1021.41 1021.62 1021.77 1021.88 1021.94 1021.99 1022.03 1022.05 1022.07 1022.08 1022.08 1022.07 1022.04 1022.00 1021.97 1021.94 1021.94 1021.98 1022.07 1022.24 1022.46 1022.75 1023.09 1023.47 1023.85 1024.22 1024.55 1024.81
1014.24 1014.75 1015.25 1015.76 1016.25 1016.75 1017.25 1017.76 1018.28 1018.79 1019.30 1019.79 1020.25 1020.66 1021.01 1021.31 1021.54 1021.71 1021.84 1021.93 1021.99 1022.03 1022.06 1022.07 1022.08 1022.07 1022.04 1021.99 1021.93 1021.85 1021.78 1021.72 1021.70 1021.73 1021.82 1021.99 1022.23 1022.54 1022.91 1023.31 1023.73 1024.12 1024.47 1024.74
1014.42 1015.01 1015.60 1016.17 1016.73 1017.26 1017.78 1018.28 1018.77 1019.24 1019.70 1020.12 1020.51 1020.86 1021.16 1021.41 1021.61 1021.77 1021.89 1021.98 1022.05 1022.09 1022.12 1022.14 1022.13 1022.10 1022.05 1021.97 1021.87 1021.76 1021.65 1021.56 1021.51 1021.51 1021.59 1021.74 1021.98 1022.30 1022.67 1023.09 1023.52 1023.92 1024.28 1024.56
1014.62 1015.28 1015.92 1016.54 1017.12 1017.67 1018.18 1018.67 1019.12 1019.54 1019.94 1020.32 1020.65 1020.96 1021.23 1021.47 1021.66 1021.83 1021.96 1022.07 1022.15 1022.21 1022.25 1022.27 1022.25 1022.21 1022.13 1022.02 1021.89 1021.74 1021.60 1021.48 1021.40 1021.38 1021.43 1021.57 1021.79 1022.10 1022.47 1022.88 1023.30 1023.71 1024.06 1024.33
1014.85 1015.54 1016.21 1016.85 1017.43 1017.97 1018.46 1018.91 1019.32 1019.70 1020.06 1020.40 1020.71 1021.01 1021.27 1021.52 1021.73 1021.92 1022.08 1022.22 1022.33 1022.40 1022.45 1022.47 1022.45 1022.39 1022.29 1022.16 1022.00 1021.83 1021.66 1021.51 1021.41 1021.36 1021.40 1021.52 1021.72 1022.01 1022.36 1022.75 1023.15 1023.54 1023.89 1024.15
1015.10 1015.80 1016.48 1017.10 1017.67 1018.18 1018.63 1019.04 1019.41 1019.76 1020.10 1020.42 1020.73 1021.04 1021.33 1021.60 1021.85 1022.07 1022.27 1022.43 1022.57 1022.66 1022.71 1022.73 1022.70 1022.63 1022.51 1022.36 1022.19 1022.01 1021.82 1021.67 1021.55 1021.50 1021.52 1021.62 1021.80 1022.07 1022.39 1022.76 1023.13 1023.50 1023.82 1024.08
1015.36 1016.07 1016.72 1017.32 1017.85 1018.32 1018.73 1019.10 1019.44 1019.77 1020.09 1020.42 1020.75 1021.08 1021.40 1021.71 1022.00 1022.27 1022.50 1022.69 1022.84 1022.94 1022.99 1023.00 1022.96 1022.88 1022.75 1022.60 1022.42 1022.24 1022.06 1021.91 1021.80 1021.75 1021.77 1021.86 1022.03 1022.27 1022.57 1022.90 1023.25 1023.58 1023.88 1024.12
1015.63 1016.32 1016.95 1017.51 1018.00 1018.42 1018.79 1019.12 1019.44 1019.76 1020.08 1020.42 1020.77 1021.13 1021.49 1021.84 1022.17 1022.47 1022.72 1022.93 1023.08 1023.18 1023.23 1023.23 1023.17 1023.08 1022.96 1022.81 1022.64 1022.48 1022.32 1022.20 1022.11 1022.07 1022.10 1022.20 1022.36 1022.58 1022.85 1023.16 1023.47 1023.78 1024.05 1024.28
1015.88 1016.55 1017.15 1017.67 1018.11 1018.49 1018.82 1019.13 1019.43 1019.74 1020.06 1020.42 1020.79 1021.18 1021.57 1021.95 1022.30 1022.62 1022.88 1023.09 1023.24 1023.33 1023.37 1023.36 1023.30 1023.21 1023.09 1022.96 1022.82 1022.69 1022.58 1022.49 1022.44 1022.43 1022.48 1022.58 1022.74 1022.95 1023.20 1023.47 1023.76 1024.03 1024.29 1024.49
1016.10 1016.74 1017.31 1017.79 1018.19 1018.53 1018.83 1019.11 1019.40 1019.70 1020.03 1020.39 1020.78 1021.18 1021.59 1021.99 1022.35 1022.66 1022.93 1023.13 1023.27 1023.35 1023.37 1023.36 1023.30 1023.23 1023.13 1023.03 1022.94 1022.86 1022.79 1022.76 1022.75 1022.78 1022.86 1022.97 1023.13 1023.33 1023.56 1023.81 1024.07 1024.32 1024.55 1024.75
1016.26 1016.88 1017.41 1017.85 1018.22 1018.53 1018.80 1019.06 1019.33 1019.62 1019.95 1020.32 1020.71 1021.12 1021.53 1021.92 1022.27 1022.58 1022.83 1023.02 1023.14 1023.22 1023.24 1023.23 1023.19 1023.14 1023.09 1023.04 1023.00 1022.98 1022.97 1022.99 1023.04 1023.11 1023.21 1023.34 1023.50 1023.69 1023.90 1024.13 1024.37 1024.60 1024.82 1025.02
1016.34 1016.93 1017.43 1017.84 1018.18 1018.46 1018.72 1018.96 1019.22 1019.51 1019.83 1020.18 1020.57 1020.96 1021.36 1021.73 1022.07 1022.36 1022.59 1022.77 1022.89 1022.96 1023.00 1023.01 1023.01 1023.00 1023.00 1023.01 1023.03 1023.08 1023.14 1023.21 1023.31 1023.42 1023.55 1023.69 1023.86 1024.04 1024.24 1024.45 1024.67 1024.90 1025.11 1025.31
1016.32 1016.88 1017.35 1017.74 1018.06 1018.33 1018.57 1018.80 1019.05 1019.33 1019.65 1019.99 1020.35 1020.73 1021.10 1021.45 1021.77 1022.04 1022.26 1022.43 1022.55 1022.64 1022.70 1022.75 1022.79 1022.84 1022.91 1022.98 1023.08 1023.19 1023.32 1023.45 1023.59 1023.73 1023.88 1024.04 1024.21 1024.38 1024.58 1024.78 1024.99 1025.21 1025.43 1025.64
1016.19 1016.72 1017.17 1017.54 1017.85 1018.11 1018.36 1018.59 1018.85 1019.12 1019.43 1019.76 1020.10 1020.46 1020.81 1021.13 1021.43 1021.68 1021.90 1022.07 1022.21 1022.32 1022.42 1022.51 1022.62 1022.73 1022.86 1023.01 1023.18 1023.35 1023.53 1023.72 1023.90 1024.07 1024.24 1024.41 1024.58 1024.75 1024.94 1025.14 1025.35 1025.58 1025.81 1026.04
Thickness
5672 5672 5671 5673 5678 5682 5686 5689 5686 5682 5676 5668 5664 5656 5645 5636 5630 5626 5622 5620 5618 5616 5613 5611 5609 5606 5602 5598 5595 5590 5584 5578 5572 5568 5563 5559 5554 5550 5546 5542 5538 5533 5528 5523
5666 5675 5675 5672 5669 5669 5673 5675 5675 5668 5654 5654 5649 5641 5631 5624 5618 5613 5608 5605 5602 5598 5595 5592 5589 5586 5582 5578 5574 5570 5565 5559 5554 5550 5545 5541 5537 5533 5528 5524 5519 5515 5510 5505
5659 5673 5668 5656 5657 5660 5659 5659 5658 5647 5638 5637 5629 5623 5617 5612 5607 5600 5593 5589 5585 5581 5578 5573 5570 5567 5563 5560 5556 5551 5546 5542 5538 5534 5530 5526 5523 5516 5511 5506 5502 5497 5492 5486
5655 5654 5633 5637 5655 5656 5649 5641 5642 5634 5625 5617 5609 5603 5600 5598 5594 5587 5582 5577 5571 5567 5563 5558 5554 5551 5548 5545 5541 5536 5532 5528 5524 5520 5516 5511 5506 5500 5495 5490 5485 5481 5476 5471
5645 5639 5629 5627 5635 5641 5636 5621 5625 5619 5611 5604 5599 5593 5583 5580 5579 5574 5570 5564 5559 5554 5550 5545 5541 5537 5535 5531 5527 5523 5518 5514 5510 5506 5501 5496 5490 5485 5480 5475 5471 5466 5462 5457
5637 5622 5609 5611 5630 5643 5635 5603 5609 5609 5603 5599 5596 5583 5568 5565 5563 5559 5555 5551 5547 5542 5538 5534 5529 5526 5522 5518 5514 5510 5505 5500 5496 5491 5486 5481 5475 5470 5466 5461 5457 5453 5448 5444
5627 5616 5605 5617 5632 5636 5606 5588 5598 5598 5594 5591 5584 5574 5561 5555 5552 5548 5544 5539 5535 5531 5527 5522 5518 5514 5510 5506 5502 5498 5493 5488 5482 5477 5473 5467 5462 5457 5452 5448 5444 5440 5436 5432
5616 5604 5592 5613 5616 5602 5590 5594 5592 5589 5584 5578 5570 5561 5553 5547 5542 5538 5534 5529 5525 5520 5516 5512 5508 5504 5500 5495 5491 5487 5481 5475 5470 5466 5462 5456 5450 5445 5441 5437 5434 5430 5425 5421
5608 5597 5601 5605 5601 5598 5595 5589 5585 5580 5575 5569 5561 5553 5546 5540 5535 5530 5526 5521 5516 5512 5507 5503 5499 5495 5491 5485 5481 5475 5470 5464 5460 5455 5450 5446 5441 5437 5433 5428 5425 5421 5417 5412
5606 5600 5601 5600 5597 5594 5590 5585 5581 5576 5569 5562 5554 5546 5539 5533 5527 5522 5517 5513 5509 5505 5500 5495 5491 5486 5481 5477 5471 5466 5460 5456 5452 5447 5443 5438 5434 5430 5426 5420 5415 5411 5407 5403
5602 5598 5595 5591 5589 5586 5583 5580 5575 5569 5563 5555 5547 5539 5532 5526 5520 5516 5512 5507 5502 5498 5494 5489 5484 5480 5475 5470 5464 5459 5453 5449 5445 5441 5437 5433 5428 5420 5416 5407 5401 5398 5395 5392
5592 5593 5588 5581 5582 5580 5575 5571 5567 5561 5554 5548 5541 5534 5527 5520 5515 5511 5506 5501 5496 5493 5488 5484 5479 5474 5469 5463 5458 5452 5448 5444 5441 5437 5433 5429 5424 5416 5406 5401 5394 5389 5385 5382
5596 5593 5587 5581 5577 5573 5569 5564 5560 5555 5548 5540 5534 5528 5521 5516 5511 5506 5501 5497 5492 5488 5483 5478 5473 5468 5463 5458 5453 5448 5443 5439 5437 5434 5431 5427 5423 5418 5408 5396 5390 5387 5383 5381
5593 5588 5578 5573 5568 5565 5561 5558 5553 5547 5540 5534 5528 5522 5517 5512 5507 5502 5498 5494 5489 5484 5479 5474 5469 5463 5459 5454 5449 5445 5441 5437 5433 5431 5429 5426 5422 5419 5413 5405 5397 5392 5386 5383
5587 5582 5574 5568 5562 5557 5554 5549 5543 5537 5532 5527 5523 5518 5513 5508 5504 5499 5495 5491 5486 5481 5476 5470 5465 5460 5456 5452 5447 5444 5441 5437 5433 5431 5428 5425 5422 5418 5413 5407 5402 5397 5392 5389
5581 5575 5568 5562 5556 5551 5547 5543 5538 5532 5528 5523 5519 5515 5511 5506 5501 5496 5492 5488 5483 5477 5471 5466 5461 5458 5455 5451 5446 5445 5440 5433 5432 5431 5429 5426 5423 5418 5414 5409 5405 5400 5397 5393
5576 5568 5562 5556 5551 5547 5543 5539 5535 5530 5526 5521 5517 5513 5508 5503 5497 5493 5489 5485 5479 5474 5468 5463 5458 5455 5453 5449 5446 5447 5444 5438 5430 5431 5429 5425 5422 5419 5415 5411 5408 5404 5400 5396
5576 5569 5563 5556 5551 5545 5540 5536 5532 5528 5524 5520 5516 5511 5506 5501 5496 5491 5487 5482 5478 5472 5467 5461 5455 5451 5450 5447 5444 5444 5444 5441 5437 5433 5429 5425 5422 5421 5417 5414 5411 5408 5405 5401
5573 5565 5559 5553 5548 5543 5539 5534 5530 5526 5522 5519 5514 5509 5505 5500 5494 5490 5486 5483 5478 5471 5464 5459 5453 5451 5450 5445 5441 5444 5445 5443 5438 5434 5431 5423 5424 5423 5420 5417 5414 5411 5408 5406
5568 5561 5555 5550 5546 5541 5537 5533 5529 5524 5521 5518 5513 5508 5503 5498 5494 5490 5486 5481 5474 5469 5464 5457 5455 5453 5449 5446 5441 5446 5444 5442 5438 5435 5432 5429 5427 5424 5421 5418 5415 5412 5409 5407
5563 5557 5551 5547 5543 5539 5535 5531 5527 5523 5520 5516 5511 5507 5502 5498 5495 5491 5487 5481 5473 5468 5463 5458 5455 5451 5448 5442 5442 5446 5444 5440 5437 5434 5432 5430 5427 5424 5421 5418 5415 5412 5410 5407
5559 5553 5549 5544 5540 5535 5532 5530 5526 5523 5519 5515 5512 5507 5502 5498 5496 5491 5485 5481 5474 5466 5466 5463 5455 5447 5444 5440 5445 5446 5443 5439 5436 5433 5431 5429 5426 5423 5420 5418 5416 5413 5409 5408
5556 5551 5546 5541 5537 5533 5530 5528 5526 5522 5519 5515 5511 5507 5504 5502 5500 5496 5488 5481 5476 5468 5466 5460 5453 5448 5444 5446 5449 5446 5441 5438 5436 5433 5430 5428 5425 5423 5420 5418 5416 5413 5410 5408
5552 5547 5543 5539 5535 5531 5528 5527 5525 5522 5519 5516 5512 5509 5506 5504 5501 5496 5486 5478 5474 5471 5467 5460 5456 5452 5448 5450 5451 5447 5443 5439 5437 5434 5431 5429 5426 5424 5421 5419 5417 5414 5411 5409
5549 5544 5540 5535 5532 5530 5528 5526 5523 5520 5519 5517 5514 5511 5509 5509 5505 5498 5491 5484 5476 5474 5471 5466 5461 5458 5456 5457 5452 5446 5442 5438 5435 5434 5431 5429 5427 5424 5422 5420 5417 5415 5413 5412
5545 5541 5537 5534 5532 5531 5529 5526 5524 5522 5521 5519 5516 5513 5513 5510 5505 5498 5493 5490 5486 5480 5480 5476 5473 5467 5465 5461 5455 5451 5446 5442 5440 5437 5434 5431 5428 5425 5422 5420 5419 5417 5415 5414
5541 5538 5534 5533 5531 5531 5530 5529 5527 5525 5524 5521 5519 5517 5515 5511 5507 5503 5500 5497 5494 5491 5489 5486 5482 5476 5471 5465 5460 5456 5451 5447 5444 5441 5437 5434 5431 5428 5425 5423 5422 5420 5419 5417